Regional Weather Roundup
Issued by NWS New Orleans/Baton Rouge, LA

Home | Current Version | Previous Version | Graphics & Text | Print | Product List | Glossary On
Versions: 1 2 3 4 5 6 7 8 9 10 11 12 13 14 15 16 17 18 19 20 21 22 23 24 25 26 27 28 29 30 31 32 33 34 35 36 37 38 39 40 41 42 43 44 45 46 47 48 49 50
022
ASUS44 KLIX 161210
RWRLIX
NEW ORLEANS REGIONAL WEATHER ROUNDUP
NATIONAL WEATHER SERVICE NEW ORLEANS LA
700 AM CDT WED APR 16 2014

NOTE: "FAIR" INDICATES FEW OR NO CLOUDS BELOW 12,000 FEET WITH NO
      SIGNIFICANT WEATHER AND/OR OBSTRUCTIONS TO VISIBILITY.
      SKY/WX - SKY CONDITION AND SIGNIFICANT WEATHER.
      TMP - AIR TEMPERATURE.     DP    - DEWPOINT TEMPERATURE.
      RH  - RELATIVE HUMIDITY.   PRES  - PRESSURE.
      HI  - HEAT INDEX.          WCI   - WIND CHILL INDEX.

*  THESE STATIONS ARE NOT NWS OR FAA STATIONS AND ARE NOT UNDER
   NWS QUALITY CONTROL.

LAZ038-040-048-061>063-065>067-069-161300-
SOUTHEAST LOUISIANA

CITY           SKY/WX    TMP DP  RH WIND       PRES   REMARKS
N.O. AUDUBON     N/A     48  32  52 MISG        N/A
6HR MIN TEMP:  46; 6HR MAX TEMP:  50;

N.O. INTL ARPT CLEAR     47  33  58 E6        30.22R
6HR MIN TEMP:  47; 6HR MAX TEMP:  51;

N.O. LAKEFRONT CLEAR     48  34  58 E17       30.22R
6HR MIN TEMP:  48; 6HR MAX TEMP:  52;

N.O. DOWNTOWN*   N/A     48  28  46 NE7       30.22R
6HR MIN TEMP:  46; 6HR MAX TEMP:  52;

SLIDELL        CLEAR     41  32  70 NE5       30.22R
6HR MIN TEMP:  39; 6HR MAX TEMP:  46;

BATON ROUGE    CLEAR     37  33  85 CALM      30.23R
6HR MIN TEMP:  37; 6HR MAX TEMP:  44;

BOOTHVILLE     CLEAR     54  40  59 E10       30.19R
6HR MIN TEMP:  53; 6HR MAX TEMP:  56;

BELLE CHASSE   CLEAR     45  35  68 N6        30.21R
6HR MIN TEMP:  44; 6HR MAX TEMP:  50;

BOGALUSA*        N/A     37  33  87 N5        30.23R WCI  33
6HR MIN TEMP:  36; 6HR MAX TEMP:  41;

GALLIANO*      SUNNY     45  39  79 N7        30.20R
6HR MIN TEMP:  45; 6HR MAX TEMP:  53;

NEW ROADS*       N/A     39  31  74 NE6       30.24R WCI  34
6HR MIN TEMP:  38; 6HR MAX TEMP:  44;

GONZALES*        N/A     38  36  91 CALM      30.22R
6HR MIN TEMP:  38; 6HR MAX TEMP:  46;

HAMMOND*       CLEAR     37  34  87 CALM      30.24R
HOUMA*         CLEAR     43  37  81 NE5       30.21R
PORT FOURCHON* MOSUNNY   52  41  66 N9        30.21R

$$

MSZ070-080>082-161300-
SOUTHERN MISSISSIPPI

CITY           SKY/WX    TMP DP  RH WIND       PRES   REMARKS
MCCOMB         CLEAR     36  31  82 N3        30.22R
6HR MIN TEMP:  35; 6HR MAX TEMP:  41;

GULFPORT       CLEAR     41  33  73 NE5       30.22R
6HR MIN TEMP:  40; 6HR MAX TEMP:  47;

BILOXI         CLEAR     40  35  81 NE6       30.22R
6HR MIN TEMP:  39; 6HR MAX TEMP:  45;

PASCAGOULA     CLEAR     38  36  92 CALM      30.22R
6HR MIN TEMP:  36; 6HR MAX TEMP:  45;

STENNIS ARPT*  CLEAR     39  34  81 CALM      30.23

$$

COASTAL OBSERVATIONS
LAKE AND NEARSHORE STATIONS

STATION/POSITION TIME  TEMP    WIND        PRES    WAVE
                       AIR SEA DIR/SP/G            HT/PER
                 (UTC) (F)     (DEG/KT/KT) (MB)    (FT/S)
PASCAGOULA       1200   42      20/  5/  8 1022.5
WAVELAND YACHT   1200   42 62   60/ 12/ 15 1022.3
GRAND ISLE       1200   54 65   70/ 13/ 16 1022.6
SOUTHWEST PASS   1200   56 57   50/ 12/ 15 1022.2
NEW CANAL        1200   49 62   80/  9/ 15 1023.4
SHELL BEACH      1200   51 58   50/ 16/ 21 1022.5

OFFSHORE STATIONS

STATION/POSITION TIME  TEMP    WIND        PRES    WAVE
                       AIR SEA DIR/SP/G            HT/PER
                 (UTC) (F)     (DEG/KT/KT) (MB)    (FT/S)
64 S DAUPHIN ISL 1053   55 68   60/ 16/ 23 1022.0

$$




USA.gov is the U.S. government's official web portal to all federal, state and local government web resources and services.